[[{"header":{"parameterUnit":"m.s-1","parameterCategory":1,"la1":30.2991,"la2":30.254,"lo1":-89.0895,"lo2":-89.0444,"dy":0.0017,"dx":0.0017,"nx":28,"ny":28,"refTime":"2025-04-17T03:00:00:Z","depth":0,"parameterNumber":2,"parameterNumberName":"U-component_of_WINDS"},"data":[0,0,0,0,0,0,0,0,0,0,0,0,0,0,0,0,0,0,0,0,0,0,0,0,0,0,0,0,0,0,0,0,0,0,0,0,0,0,0,0,0,0,0,0,0,0,0,0,0,0,0,0,0,0,0,0,0,0,-2.2267,-2.2268,0,-2.2369,-2.237,-2.2371,-2.2396,-2.2395,-2.2394,-2.2394,-2.25,-2.2504,-2.2507,0,0,0,0,0,0,0,0,0,0,0,0,0,-2.2095,-2.2098,-2.2267,-2.2268,-2.2269,-2.2369,-2.237,-2.2372,-2.2396,-2.2395,-2.2394,-2.2393,-2.2499,-2.2503,-2.2508,0,0,0,0,0,0,0,0,0,0,0,0,0,-2.218,-2.2099,-2.2266,-2.2293,-2.2297,-2.2369,-2.237,-2.2372,-2.2396,-2.2395,-2.2394,-2.2393,-2.2498,-2.2503,-2.2508,-2.2561,0,0,-2.2524,-2.2526,0,0,0,0,0,0,0,0,-2.2176,-2.2187,-2.2288,-2.2291,-2.2295,-2.2369,-2.2349,-2.2435,-2.2396,-2.2358,-2.2394,-2.2393,-2.2457,-2.2466,-2.2487,-2.2566,-2.2571,-2.2525,-2.2528,-2.253,-2.2531,0,0,0,0,0,0,0,-2.217,-2.2182,-2.2307,-2.2289,-2.2294,-2.2301,-2.2312,-2.2365,-2.2413,-2.2362,-2.2364,-2.2375,-2.2459,-2.2482,-2.249,-2.2572,-2.2524,-2.2529,-2.2532,-2.2534,-2.2701,-2.2702,0,0,0,0,0,0,-2.2159,-2.2177,-2.2304,-2.231,-2.2232,-2.2305,-2.2317,-2.2346,-2.2412,-2.2421,-2.2376,-2.2376,-2.2474,-2.2484,-2.2494,-2.2561,-2.253,-2.2535,-2.2538,-2.2699,-2.2701,-2.2702,0,0,0,0,0,0,-2.2155,-2.217,-2.23,-2.2244,-2.2261,-2.2309,-2.2341,-2.2349,-2.2372,-2.2423,-2.2432,-2.2391,-2.2474,-2.2487,-2.2544,-2.2565,-2.2537,-2.2542,-2.2698,-2.27,-2.2702,-2.2694,0,0,0,0,0,0,-2.215,-2.2168,-2.2188,-2.2245,-2.2264,-2.2348,-2.2342,-2.2351,-2.238,-2.2381,-2.2439,-2.2448,-2.2474,-2.2536,-2.255,-2.2572,-2.2546,-2.2696,-2.2699,-2.2701,-2.2693,-2.2696,-2.2698,0,0,0,0,0,-2.2144,-2.2182,-2.2189,-2.2204,-2.229,-2.2349,-2.236,-2.2389,-2.2382,-2.2403,-2.2436,-2.2446,-2.2561,-2.2542,-2.2557,-2.2581,-2.2695,-2.2698,-2.2701,-2.2692,-2.2695,-2.2698,0,0,0,0,0,0,-2.2127,-2.219,-2.2198,-2.2256,-2.2297,-2.2353,-2.238,-2.2391,-2.2435,-2.2434,-2.2469,-2.2482,-2.2537,-2.2565,-2.2543,-2.2636,-2.2628,-2.2634,-2.2616,-2.262,-2.2622,-2.2614,-2.255,0,0,0,0,0,-2.213,-2.2172,-2.2225,-2.2271,-2.2291,-2.2332,-2.2358,-2.2377,-2.2421,-2.2438,-2.2476,-2.2518,-2.2564,-2.2594,-2.2638,-2.2698,-2.2711,-2.2722,-2.2724,-2.2726,-2.2731,-2.2765,-2.277,-2.2712,-2.2712,-2.2712,0,0,-2.2137,-2.2177,-2.2201,-2.2269,-2.2302,-2.2345,-2.2346,-2.2391,-2.2424,-2.2445,-2.2502,-2.2531,-2.2581,-2.264,-2.2668,-2.2665,-2.275,-2.273,-2.2731,-2.2735,-2.2768,-2.2774,-2.2779,-2.2714,-2.2713,-2.2713,0,0,-2.2172,-2.2205,-2.2248,-2.2282,-2.2332,-2.236,-2.237,-2.2424,-2.2444,-2.2501,-2.2519,-2.2558,-2.2636,-2.2672,-2.27,-2.2749,-2.2759,-2.2762,-2.2776,-2.2809,-2.2813,-2.2818,-2.2835,-2.2841,-2.2767,-2.2767,-2.2767,0,-2.2174,-2.2239,-2.2268,-2.2313,-2.2343,-2.2364,-2.2407,-2.2439,-2.2502,-2.2523,-2.2519,-2.2617,-2.2653,-2.272,-2.2732,-2.2754,-2.2767,-2.2756,-2.281,-2.2815,-2.2819,-2.2837,-2.2843,-2.2767,-2.2767,-2.2767,-2.2767,0,-2.2239,-2.2284,-2.2312,-2.2372,-2.2405,-2.2449,-2.2486,-2.2516,-2.2532,-2.256,-2.2619,-2.2662,-2.2716,-2.2734,-2.275,-2.2804,-2.2801,-2.2803,-2.2795,-2.2824,-2.2841,-2.2848,-2.2767,-2.2767,-2.2767,-2.2767,0,0,-2.2266,-2.2342,-2.2352,-2.2379,-2.2438,-2.2473,-2.2519,-2.2571,-2.2597,-2.264,-2.268,-2.2746,-2.2748,-2.278,-2.2801,-2.2829,-2.2866,-2.2828,-2.283,-2.2834,-2.2929,-2.2927,-2.2934,-2.2874,-2.2875,-2.2876,-2.2925,0,-2.2308,-2.2388,-2.2417,-2.2484,-2.2526,-2.2547,-2.2587,-2.2627,-2.2655,-2.2696,-2.2726,-2.2773,-2.2772,-2.2792,-2.2821,-2.2855,-2.2886,-2.2852,-2.2911,-2.2913,-2.2898,-2.2943,-2.294,-2.2984,-2.2931,-2.2933,-2.2933,0,-2.2367,-2.241,-2.2481,-2.2535,-2.2554,-2.2589,-2.264,-2.2678,-2.2725,-2.2743,-2.2779,-2.2798,-2.2847,-2.2836,-2.2905,-2.2882,-2.2908,-2.2929,-2.2931,-2.2938,-2.2925,-2.295,-2.2998,-2.3005,-2.2944,-2.2943,-2.2942,0,-2.238,-2.2456,-2.2509,-2.2532,-2.2595,-2.2619,-2.2647,-2.2693,-2.2723,-2.2768,-2.2788,-2.2838,-2.2866,-2.2905,-2.2937,-2.2926,-2.3004,-2.2995,-2.302,-2.302,-2.3035,-2.3034,-2.3088,-2.3052,-2.3052,-2.3052,-2.3052,0,-2.2423,-2.2466,-2.2515,-2.2547,-2.2596,-2.2629,-2.2677,-2.2706,-2.2747,-2.2786,-2.2808,-2.2844,-2.2884,-2.2926,-2.2952,-2.3006,-2.3018,-2.3035,-2.3041,-2.3033,-2.3031,-2.305,-2.3048,-2.3054,-2.3054,-2.3053,-2.3053,0,-2.2446,-2.248,-2.2539,-2.2594,-2.2609,-2.2642,-2.269,-2.2723,-2.2752,-2.2801,-2.2814,-2.286,-2.291,-2.2946,-2.3012,-2.3029,-2.3087,-2.3093,-2.3071,-2.3074,-2.3097,-2.3094,-2.3166,-2.3177,-2.3133,-2.3134,-2.3134,0,-2.2471,-2.2505,-2.2563,-2.259,-2.2618,-2.2662,-2.2693,-2.2726,-2.2758,-2.2814,-2.284,-2.2892,-2.2935,-2.3016,-2.3055,-2.3105,-2.3113,-2.3135,-2.3121,-2.3111,-2.3114,-2.3111,-2.3115,-2.3136,-2.3137,-2.3137,-2.3137,0,-2.2513,-2.2529,-2.2572,-2.2621,-2.2656,-2.2697,-2.2738,-2.2759,-2.2801,-2.2835,-2.2886,-2.292,-2.2987,-2.3039,-2.3093,-2.3123,-2.3137,-2.3141,-2.315,-2.3142,-2.3127,-2.3136,-2.3076,-2.3139,-2.3139,-2.3139,-2.3139,-2.3139,-2.2539,-2.2569,-2.2615,-2.2662,-2.2697,-2.2734,-2.2768,-2.2801,-2.2844,-2.29,-2.2918,-2.2972,-2.3019,-2.3093,-2.3124,-2.3167,-2.3166,-2.3178,-2.3181,-2.3184,-2.3183,-2.312,-2.3177,-2.3177,-2.3177,-2.3177,-2.3177,0,-2.2582,-2.2613,-2.2656,-2.2712,-2.2749,-2.2759,-2.2805,-2.2836,-2.2882,-2.2925,-2.2967,-2.3026,-2.3077,-2.312,-2.3173,-2.3199,-2.3207,-2.3212,-2.321,-2.3217,-2.3181,-2.3169,-2.3204,-2.3204,-2.3204,-2.3204,-2.3204,-2.3204,-2.2609,-2.2662,-2.2682,-2.2752,-2.2783,-2.2835,-2.2861,-2.2896,-2.293,-2.2995,-2.3037,-2.3064,-2.3108,-2.3163,-2.321,-2.3222,-2.324,-2.3243,-2.3257,-2.3222,-2.3219,-2.3216,-2.3204,-2.3247,-2.3247,-2.3289,-2.3289,-2.3289]},{"header":{"parameterUnit":"m.s-1","parameterCategory":1,"la1":30.2991,"la2":30.254,"lo1":-89.0895,"lo2":-89.0444,"dy":0.0017,"dx":0.0017,"nx":28,"ny":28,"refTime":"2025-04-17T03:00:00:Z","depth":0,"parameterNumber":3,"parameterNumberName":"V-component_of_WINDS"},"data":[0,0,0,0,0,0,0,0,0,0,0,0,0,0,0,0,0,0,0,0,0,0,0,0,0,0,0,0,0,0,0,0,0,0,0,0,0,0,0,0,0,0,0,0,0,0,0,0,0,0,0,0,0,0,0,0,0,0,6.5485,6.5485,0,6.5541,6.5542,6.5543,6.5483,6.5481,6.5479,6.5477,6.5528,6.5532,6.5535,0,0,0,0,0,0,0,0,0,0,0,0,0,6.5318,6.5321,6.5485,6.5485,6.5486,6.5541,6.5542,6.5543,6.5484,6.5481,6.5478,6.5476,6.5527,6.5531,6.5535,0,0,0,0,0,0,0,0,0,0,0,0,0,6.5384,6.5322,6.5485,6.5463,6.5462,6.5541,6.5542,6.5543,6.5484,6.5481,6.5477,6.5474,6.5526,6.5531,6.5536,6.5637,0,0,6.5552,6.5554,0,0,0,0,0,0,0,0,6.538,6.539,6.5466,6.5465,6.5464,6.5502,6.5502,6.5574,6.5485,6.5476,6.5477,6.5473,6.5522,6.5527,6.5545,6.5639,6.5641,6.5552,6.5556,6.5558,6.5559,0,0,0,0,0,0,0,6.5376,6.5387,6.5507,6.5467,6.5466,6.5449,6.5454,6.5515,6.5517,6.5476,6.5472,6.548,6.552,6.554,6.5546,6.5642,6.5552,6.5557,6.556,6.5562,6.5819,6.5823,0,0,0,0,0,0,6.5374,6.5384,6.5505,6.5509,6.5413,6.5454,6.5461,6.5493,6.5516,6.5517,6.5483,6.5477,6.5533,6.554,6.5547,6.5665,6.5558,6.5563,6.5566,6.5816,6.582,6.5824,0,0,0,0,0,0,6.5371,6.5386,6.5503,6.5445,6.5459,6.5461,6.5498,6.5496,6.5516,6.5521,6.5521,6.5503,6.553,6.554,6.5615,6.5666,6.5565,6.557,6.5811,6.5817,6.5822,6.5903,0,0,0,0,0,0,6.5366,6.5385,6.5425,6.5447,6.5462,6.5572,6.5501,6.5499,6.5526,6.5518,6.554,6.554,6.5529,6.5607,6.562,6.5672,6.5574,6.5807,6.5814,6.582,6.5896,6.591,6.5923,0,0,0,0,0,6.5361,6.5445,6.5427,6.5442,6.5513,6.5575,6.5583,6.557,6.553,6.5569,6.5572,6.554,6.5659,6.5616,6.5629,6.5683,6.5803,6.5812,6.582,6.5889,6.5908,6.5923,0,0,0,0,0,0,6.5427,6.5447,6.5428,6.5522,6.5548,6.5565,6.5614,6.559,6.5625,6.5617,6.5597,6.5602,6.5681,6.569,6.5641,6.5781,6.5724,6.5736,6.5772,6.579,6.5803,6.5799,6.5578,0,0,0,0,0,6.5453,6.5504,6.5518,6.5599,6.5613,6.5612,6.5638,6.5626,6.565,6.566,6.5669,6.5692,6.5734,6.5763,6.5802,6.5897,6.5899,6.5941,6.5954,6.5966,6.5975,6.6024,6.6042,6.5851,6.5851,6.5851,0,0,6.5506,6.5523,6.5556,6.5613,6.5631,6.5682,6.5621,6.5677,6.5714,6.5668,6.5739,6.5747,6.5771,6.5856,6.5893,6.5865,6.6029,6.5976,6.5985,6.5989,6.6034,6.6052,6.6068,6.5857,6.5856,6.5855,0,0,6.5628,6.5648,6.5717,6.5737,6.5766,6.5764,6.5781,6.5802,6.5806,6.5878,6.5843,6.5886,6.596,6.5978,6.5997,6.6126,6.6097,6.614,6.6211,6.6259,6.6274,6.6287,6.6331,6.6347,6.615,6.615,6.615,0,6.569,6.5768,6.5755,6.5814,6.5839,6.5801,6.5869,6.5889,6.5928,6.5945,6.5913,6.6005,6.6019,6.6107,6.6138,6.6156,6.6172,6.6136,6.6273,6.6286,6.6298,6.634,6.6357,6.6155,6.6154,6.6154,6.6153,0,6.5841,6.5895,6.5947,6.5989,6.6019,6.6083,6.6077,6.6109,6.6094,6.6095,6.6167,6.6182,6.6224,6.6244,6.6229,6.6329,6.631,6.6277,6.6219,6.6321,6.636,6.6376,6.6162,6.616,6.6158,6.6157,0,0,6.6006,6.604,6.6059,6.6076,6.6106,6.6146,6.6207,6.6249,6.6276,6.6304,6.6353,6.6417,6.6385,6.6407,6.6394,6.6436,6.6535,6.6396,6.6396,6.642,6.6643,6.6667,6.6686,6.6516,6.6519,6.6522,6.6641,0,6.6128,6.6236,6.6226,6.6327,6.6375,6.634,6.6392,6.6414,6.6417,6.6456,6.6458,6.6503,6.6459,6.6472,6.6512,6.6514,6.6579,6.6506,6.6558,6.6561,6.6552,6.6707,6.6733,6.6845,6.6656,6.6658,6.666,0,6.6285,6.6321,6.6428,6.6448,6.6468,6.6516,6.6553,6.6592,6.6615,6.6614,6.6638,6.6618,6.6676,6.6619,6.6697,6.6648,6.6669,6.6673,6.6677,6.668,6.6615,6.6712,6.688,6.6896,6.6684,6.6683,6.6681,0,6.6393,6.6467,6.654,6.6556,6.6583,6.6617,6.6629,6.6649,6.6675,6.6707,6.6723,6.676,6.678,6.6809,6.6798,6.6758,6.6878,6.6821,6.6876,6.6877,6.6902,6.69,6.7074,6.6919,6.6919,6.6918,6.6918,0,6.6529,6.6595,6.6589,6.6633,6.6705,6.6692,6.6763,6.677,6.6788,6.6832,6.6803,6.6844,6.6829,6.6868,6.686,6.6925,6.6935,6.6933,6.693,6.6935,6.6935,6.6947,6.6938,6.6923,6.6922,6.6921,6.692,0,6.6661,6.666,6.6737,6.6756,6.6762,6.6814,6.6828,6.6869,6.6869,6.6925,6.6937,6.6936,6.6981,6.6974,6.7023,6.7017,6.7098,6.7086,6.7091,6.7087,6.7143,6.7137,6.7329,6.7353,6.7184,6.7186,6.7187,0,6.6747,6.6797,6.6822,6.685,6.6865,6.6911,6.6937,6.6925,6.6953,6.6983,6.702,6.7062,6.7096,6.7168,6.7171,6.7208,6.7196,6.726,6.7201,6.7204,6.7194,6.7191,6.7195,6.7271,6.7273,6.7275,6.7276,0,6.69,6.6897,6.6937,6.6977,6.701,6.704,6.7067,6.7091,6.7081,6.7114,6.716,6.7186,6.7237,6.7279,6.7313,6.7323,6.7297,6.7295,6.731,6.7314,6.7314,6.7313,6.7121,6.729,6.7289,6.7288,6.7287,6.7287,6.701,6.7053,6.7076,6.7122,6.7141,6.7167,6.7206,6.7211,6.7251,6.7292,6.7282,6.7334,6.7354,6.7398,6.7412,6.7451,6.7426,6.7448,6.7453,6.7458,6.7464,6.731,6.7457,6.7457,6.7456,6.7456,6.7456,0,6.716,6.7174,6.7216,6.7255,6.729,6.7265,6.7294,6.7324,6.737,6.7393,6.7426,6.7478,6.7519,6.7525,6.7563,6.7592,6.7581,6.7602,6.7599,6.7601,6.7485,6.7467,6.7611,6.7611,6.7611,6.761,6.761,6.761,6.7242,6.7312,6.7311,6.7389,6.7401,6.7454,6.7472,6.7494,6.7512,6.7572,6.7606,6.7611,6.7625,6.7664,6.7699,6.7699,6.7714,6.7739,6.7735,6.7625,6.761,6.7595,6.7579,6.7743,6.7743,6.7848,6.7849,6.785]}]]